Easton, MD

6:12 PM EST on January 22, 2018 (GMT -0500)
Easton / Newnam

Weather History for KESN - March, 2013

Change the Weather History Date:

Thursday, March 14, 2013

  Actual Average Record
Temperature  
Mean Temperature 38 °F -  
Max Temperature 44 °F 56 °F 77 °F (2007)
Min Temperature 32 °F 36 °F 20 °F (1960)
Degree Days  
Heating Degree Days 27    
Moisture  
Dew Point 21 °F    
Average Humidity 55    
Maximum Humidity 65    
Minimum Humidity 37    
Precipitation  
Precipitation 0.00 in - - ()
Sea Level Pressure  
Sea Level Pressure 30.09 in    
Wind  
Wind Speed 16 mph (NW)    
Max Wind Speed 23 mph    
Max Gust Speed 33 mph    
Visibility 10 miles    
Events      
Averages and records for this station are not official NWS values.
T = Trace of Precipitation, MM = Missing Value Source: NWS Daily Summary

Daily Weather History Graph

Daily Weather History Graph

Search for Another Location

Airport or City:

Trip Planner

Search our weather history database for the weather conditions in past years. The results will help you decide how hot, cold, wet, or windy it might be!

Date:

Astronomy

Mar. 14, 2013 Rise Set
Actual Time 7:16 AM EDT 7:10 PM EDT
Civil Twilight 6:50 AM EDT 7:37 PM EDT
Nautical Twilight 6:19 AM EDT 8:08 PM EDT
Astronomical Twilight 5:48 AM EDT 8:39 PM EDT
Moon 8:31 AM EDT (3/14) 10:22 PM EDT (3/14)
Length of Visible Light 12h 46m
Length of Day
11h 53m
Waxing Crescent, 9% of the Moon is Illuminated
Mar 14
Waxing Crescent
Mar 19
First Quarter
Mar 27
Full
Apr 3
Last Quarter
Apr 10
New

Hourly Weather History & Observations

Time (EDT) Temp. Windchill Dew Point Humidity Pressure Visibility Wind Dir Wind Speed Gust Speed Precip Events Conditions
12:10 AM 36.5 °F 25.2 °F 21.9 °F 56% 30.08 in 10.0 mi NW 23.0 mph 27.6 mph N/A   Clear
12:30 AM 35.6 °F 25.5 °F 21.7 °F 57% 30.07 in 10.0 mi NNW 17.3 mph 27.6 mph N/A   Clear
12:50 AM 35.6 °F 25.2 °F 21.2 °F 56% 30.08 in 10.0 mi NW 18.4 mph 33.4 mph N/A   Clear
1:10 AM 34.9 °F 24.2 °F 22.1 °F 60% 30.08 in 10.0 mi NW 18.4 mph 26.5 mph N/A   Clear
1:30 AM 35.1 °F 24.5 °F 22.6 °F 61% 30.08 in 10.0 mi NW 18.4 mph 26.5 mph N/A   Mostly Cloudy
1:50 AM 34.5 °F 25.7 °F 22.6 °F 62% 30.09 in 10.0 mi NW 12.7 mph 21.9 mph N/A   Scattered Clouds
2:10 AM 34.0 °F 26.0 °F 21.7 °F 61% 30.08 in 10.0 mi NW 10.4 mph 21.9 mph N/A   Clear
2:30 AM 34.0 °F 23.8 °F 21.6 °F 60% 30.08 in 10.0 mi NNW 16.1 mph 25.3 mph N/A   Clear
2:50 AM 33.8 °F 23.5 °F 21.4 °F 60% 30.08 in 10.0 mi NW 16.1 mph 24.2 mph N/A   Clear
3:10 AM 33.6 °F 25.6 °F 21.6 °F 61% 30.09 in 10.0 mi NW 10.4 mph 20.7 mph N/A   Clear
3:30 AM 33.4 °F 24.3 °F 21.6 °F 62% 30.08 in 10.0 mi NW 12.7 mph 18.4 mph N/A   Scattered Clouds
3:50 AM 33.6 °F 22.9 °F 21.6 °F 61% 30.08 in 10.0 mi NNW 17.3 mph 23.0 mph N/A   Scattered Clouds
4:10 AM 33.3 °F 24.6 °F 21.9 °F 63% 30.08 in 10.0 mi NNW 11.5 mph 16.1 mph N/A   Scattered Clouds
4:30 AM 33.4 °F 23.5 °F 21.0 °F 60% 30.08 in 10.0 mi NNW 15.0 mph 25.3 mph N/A   Scattered Clouds
4:50 AM 32.0 °F 22.5 °F 21.2 °F 64% 30.08 in 10.0 mi NNW 12.7 mph 18.4 mph N/A   Scattered Clouds
5:10 AM 32.4 °F 22.1 °F 21.9 °F 65% 30.08 in 10.0 mi NNW 15.0 mph - N/A   Clear
5:30 AM 32.5 °F 23.7 °F 21.4 °F 64% 30.08 in 10.0 mi NNW 11.5 mph 18.4 mph N/A   Clear
5:50 AM 32.7 °F 23.9 °F 21.6 °F 64% 30.09 in 10.0 mi NW 11.5 mph 18.4 mph N/A   Clear
5:55 AM 32.0 °F 23.0 °F 21.2 °F 64% 30.09 in 10.0 mi WNW 11.5 mph 20.7 mph N/A   Clear
6:10 AM 32.5 °F 22.3 °F 21.0 °F 63% 30.10 in 10.0 mi NW 15.0 mph 20.7 mph N/A   Clear
6:30 AM 32.4 °F 24.6 °F 21.2 °F 63% 30.10 in 10.0 mi NW 9.2 mph 21.9 mph N/A   Clear
6:50 AM 32.0 °F 21.2 °F 21.2 °F 64% 30.11 in 10.0 mi NW 16.1 mph 20.7 mph N/A   Clear
6:53 AM 32.0 °F 22.1 °F 19.4 °F 60% 30.11 in 10.0 mi NW 13.8 mph 20.7 mph N/A   Partly Cloudy
7:10 AM 32.2 °F 22.7 °F 20.5 °F 62% 30.11 in 10.0 mi NW 12.7 mph 21.9 mph N/A   Clear
7:30 AM 32.4 °F 25.3 °F 20.1 °F 61% 30.11 in 10.0 mi NW 8.1 mph 17.3 mph N/A   Clear
7:40 AM 33.4 °F 25.4 °F 20.3 °F 59% 30.11 in 10.0 mi NW 10.4 mph 17.3 mph N/A   Clear
7:53 AM 33.8 °F 23.5 °F 19.4 °F 56% 30.11 in 10.0 mi NW 16.1 mph 24.2 mph N/A   Mostly Cloudy
8:53 AM 35.6 °F 25.2 °F 21.2 °F 56% 30.13 in 10.0 mi NW 18.4 mph 29.9 mph N/A   Mostly Cloudy
9:53 AM 37.4 °F 27.5 °F 19.4 °F 48% 30.13 in 10.0 mi WNW 18.4 mph 33.4 mph N/A   Scattered Clouds
10:53 AM 37.4 °F 26.9 °F 19.4 °F 48% 30.13 in 10.0 mi WNW 20.7 mph 32.2 mph N/A   Scattered Clouds
11:53 AM 41.0 °F 31.1 °F 19.4 °F 42% 30.11 in 10.0 mi NW 23.0 mph 32.2 mph N/A   Scattered Clouds
12:50 PM 41.0 °F 32.2 °F 21.2 °F 45% 30.09 in 10.0 mi WNW 18.4 mph 27.6 mph N/A   Scattered Clouds
1:50 PM 42.8 °F 34.3 °F 21.2 °F 42% 30.08 in 10.0 mi WNW 19.6 mph 29.9 mph N/A   Scattered Clouds
2:55 PM 42.8 °F 34.3 °F 21.2 °F 42% 30.04 in 10.0 mi NNW 19.6 mph 27.6 mph N/A   Partly Cloudy
3:50 PM 44.6 °F 36.9 °F 19.4 °F 37% 30.03 in 10.0 mi WNW 18.4 mph 27.6 mph N/A   Partly Cloudy
4:54 PM 44.6 °F 35.9 °F 19.4 °F 37% 30.03 in 10.0 mi NW 23.0 mph 32.2 mph N/A   Clear
5:55 PM 44.6 °F 37.4 °F 19.4 °F 37% 30.04 in 10.0 mi NW 16.1 mph 28.8 mph N/A   Clear
6:54 PM 41.0 °F 31.9 °F 19.4 °F 42% 30.06 in 10.0 mi NW 19.6 mph 25.3 mph N/A   Clear
7:45 PM 39.2 °F 32.0 °F 19.4 °F 45% 30.08 in 10.0 mi NW 11.5 mph 18.4 mph N/A   Clear
8:48 PM 39.2 °F 29.6 °F 19.4 °F 45% 30.09 in 10.0 mi NW 19.6 mph 25.3 mph N/A   Clear
10:52 PM 38.5 °F 30.7 °F 20.3 °F 48% 30.11 in 10.0 mi NW 12.7 mph 18.4 mph N/A   Clear
11:12 PM 38.1 °F 30.7 °F 20.7 °F 49% 30.11 in 10.0 mi NW 11.5 mph - N/A   Clear
11:32 PM 38.3 °F 31.4 °F 20.3 °F 48% 30.11 in 10.0 mi NW 10.4 mph 19.6 mph N/A   Clear
11:52 PM 37.6 °F 31.0 °F 21.0 °F 51% 30.11 in 10.0 mi NW 9.2 mph - N/A   Clear